TimeEST,TemperatureF,Dew PointF,Humidity,Sea Level PressureIn,VisibilityMPH,Wind Direction,Wind SpeedMPH,Gust SpeedMPH,PrecipitationIn,Events,Conditions,WindDirDegrees,DateUTC
12:15 AM,23.0,21.2,93,30.01,5.0,SW,12.7,-,N/A,,Mostly Cloudy,230,2013-12-18 05:15:00
12:35 AM,23.0,21.2,93,30.01,5.0,North,-9999.0,-,N/A,,Overcast,0,2013-12-18 05:35:00
12:55 AM,24.8,21.2,86,30.00,6.0,WSW,13.8,-,N/A,,Overcast,240,2013-12-18 05:55:00
1:15 AM,24.8,21.2,86,30.00,7.0,WSW,15.0,-,N/A,,Overcast,240,2013-12-18 06:15:00
1:35 AM,23.0,19.4,86,30.01,8.0,WSW,15.0,-,N/A,,Mostly Cloudy,240,2013-12-18 06:35:00
1:55 AM,23.0,19.4,86,30.01,9.0,WSW,13.8,-,N/A,,Partly Cloudy,250,2013-12-18 06:55:00
2:15 AM,21.2,17.6,86,30.02,10.0,WSW,11.5,-,N/A,,Clear,240,2013-12-18 07:15:00
2:35 AM,21.2,17.6,86,30.03,10.0,WSW,11.5,-,N/A,,Clear,250,2013-12-18 07:35:00
2:55 AM,19.4,15.8,86,30.03,10.0,WSW,11.5,-,N/A,,Partly Cloudy,250,2013-12-18 07:55:00
3:15 AM,19.4,15.8,86,30.04,10.0,WSW,11.5,-,N/A,,Clear,250,2013-12-18 08:15:00
3:35 AM,17.6,14.0,86,30.04,10.0,WSW,10.4,-,N/A,,Clear,250,2013-12-18 08:35:00
3:55 AM,17.6,14.0,86,30.04,10.0,WSW,8.1,-,N/A,,Clear,250,2013-12-18 08:55:00
4:15 AM,15.8,12.2,86,30.04,10.0,WSW,8.1,-,N/A,,Clear,250,2013-12-18 09:15:00
4:35 AM,15.8,12.2,86,30.05,10.0,WSW,9.2,-,N/A,,Clear,250,2013-12-18 09:35:00
4:55 AM,17.6,14.0,86,30.05,10.0,WSW,10.4,-,N/A,,Clear,240,2013-12-18 09:55:00
5:15 AM,17.6,14.0,86,30.06,10.0,WSW,10.4,-,N/A,,Clear,250,2013-12-18 10:15:00
5:35 AM,15.8,12.2,86,30.07,10.0,WSW,10.4,-,N/A,,Partly Cloudy,250,2013-12-18 10:35:00
5:55 AM,15.8,12.2,86,30.07,10.0,WSW,9.2,-,N/A,,Clear,250,2013-12-18 10:55:00
6:15 AM,15.8,12.2,86,30.07,10.0,WSW,10.4,-,N/A,,Clear,240,2013-12-18 11:15:00
6:35 AM,15.8,12.2,86,30.07,10.0,WSW,9.2,-,N/A,,Clear,250,2013-12-18 11:35:00
6:55 AM,14.0,10.4,86,30.07,10.0,WSW,5.8,-,N/A,,Clear,250,2013-12-18 11:55:00
7:15 AM,15.8,14.0,93,30.08,10.0,WSW,9.2,-,N/A,,Mostly Cloudy,250,2013-12-18 12:15:00
7:35 AM,17.6,14.0,86,30.09,10.0,WSW,10.4,-,N/A,,Overcast,250,2013-12-18 12:35:00
7:55 AM,19.4,15.8,86,30.09,10.0,WSW,10.4,-,N/A,,Overcast,250,2013-12-18 12:55:00
8:15 AM,21.2,17.6,86,30.11,10.0,WSW,9.2,-,N/A,,Overcast,250,2013-12-18 13:15:00
8:35 AM,23.0,17.6,80,30.11,10.0,WSW,11.5,-,N/A,,Overcast,240,2013-12-18 13:35:00
8:55 AM,23.0,17.6,80,30.11,10.0,WSW,11.5,-,N/A,,Overcast,240,2013-12-18 13:55:00
9:15 AM,23.0,17.6,80,30.11,10.0,WSW,12.7,-,N/A,,Overcast,240,2013-12-18 14:15:00
9:35 AM,21.2,15.8,80,30.12,10.0,WSW,13.8,20.7,N/A,,Overcast,240,2013-12-18 14:35:00
9:55 AM,21.2,15.8,80,30.13,10.0,WSW,10.4,-,N/A,,Overcast,240,2013-12-18 14:55:00
10:15 AM,21.2,15.8,80,30.14,10.0,WSW,12.7,-,N/A,,Overcast,250,2013-12-18 15:15:00
10:35 AM,21.2,14.0,74,30.14,10.0,WSW,12.7,-,N/A,,Overcast,240,2013-12-18 15:35:00
10:55 AM,21.2,14.0,74,30.15,10.0,WSW,12.7,-,N/A,,Mostly Cloudy,240,2013-12-18 15:55:00
11:15 AM,21.2,14.0,74,30.16,10.0,WSW,13.8,19.6,N/A,,Mostly Cloudy,250,2013-12-18 16:15:00
11:35 AM,21.2,14.0,74,30.15,10.0,WSW,13.8,19.6,N/A,,Partly Cloudy,240,2013-12-18 16:35:00
11:55 AM,23.0,15.8,74,30.15,10.0,WSW,12.7,-,N/A,,Clear,240,2013-12-18 16:55:00
12:15 PM,23.0,15.8,74,30.15,10.0,WSW,10.4,17.3,N/A,,Clear,240,2013-12-18 17:15:00
12:35 PM,23.0,15.8,74,30.14,10.0,WSW,13.8,19.6,N/A,,Clear,240,2013-12-18 17:35:00
12:55 PM,23.0,15.8,74,30.14,10.0,WSW,15.0,-,N/A,,Clear,240,2013-12-18 17:55:00
1:15 PM,23.0,15.8,74,30.13,10.0,WSW,12.7,19.6,N/A,,Clear,240,2013-12-18 18:15:00
1:35 PM,24.8,15.8,69,30.13,10.0,WSW,12.7,18.4,N/A,,Clear,240,2013-12-18 18:35:00
1:55 PM,23.0,15.8,74,30.12,10.0,SW,11.5,-,N/A,,Clear,230,2013-12-18 18:55:00
2:15 PM,23.0,15.8,74,30.11,10.0,SW,11.5,-,N/A,,Clear,230,2013-12-18 19:15:00
2:35 PM,23.0,15.8,74,30.10,10.0,SW,9.2,-,N/A,,Clear,230,2013-12-18 19:35:00
2:55 PM,24.8,17.6,74,30.09,10.0,North,-9999.0,-,N/A,,Clear,0,2013-12-18 19:55:00
3:15 PM,24.8,15.8,69,30.11,10.0,SW,11.5,-,N/A,,Clear,220,2013-12-18 20:15:00
3:35 PM,23.0,14.0,68,30.11,10.0,SW,10.4,-,N/A,,Clear,220,2013-12-18 20:35:00
3:55 PM,23.0,15.8,74,30.11,10.0,SSW,12.7,-,N/A,,Clear,210,2013-12-18 20:55:00
4:15 PM,23.0,14.0,68,30.10,10.0,SSW,12.7,-,N/A,,Clear,210,2013-12-18 21:15:00
4:35 PM,23.0,14.0,68,30.09,10.0,SSW,13.8,-,N/A,,Clear,210,2013-12-18 21:35:00
4:55 PM,21.2,14.0,74,30.08,10.0,SSW,11.5,-,N/A,,Clear,210,2013-12-18 21:55:00
5:15 PM,21.2,14.0,74,30.07,10.0,South,11.5,-,N/A,,Clear,190,2013-12-18 22:15:00
5:35 PM,21.2,14.0,74,30.06,10.0,South,11.5,-,N/A,,Clear,190,2013-12-18 22:35:00
5:55 PM,21.2,14.0,74,30.04,10.0,South,12.7,-,N/A,,Clear,180,2013-12-18 22:55:00
6:15 PM,19.4,14.0,80,30.03,10.0,South,13.8,-,N/A,,Clear,180,2013-12-18 23:15:00
6:35 PM,21.2,14.0,74,30.02,10.0,South,12.7,-,N/A,,Clear,190,2013-12-18 23:35:00
6:55 PM,21.2,14.0,74,30.01,10.0,South,15.0,-,N/A,,Clear,180,2013-12-18 23:55:00
7:15 PM,21.2,14.0,74,30.01,10.0,South,15.0,-,N/A,,Clear,180,2013-12-19 00:15:00
7:35 PM,21.2,14.0,74,29.99,10.0,South,13.8,-,N/A,,Clear,180,2013-12-19 00:35:00
7:55 PM,21.2,14.0,74,29.98,10.0,South,15.0,-,N/A,,Clear,180,2013-12-19 00:55:00
8:15 PM,23.0,14.0,68,29.97,10.0,South,15.0,21.9,N/A,,Clear,190,2013-12-19 01:15:00
8:35 PM,23.0,14.0,68,29.96,10.0,South,15.0,-,N/A,,Clear,180,2013-12-19 01:35:00
8:55 PM,23.0,14.0,68,29.96,10.0,South,12.7,-,N/A,,Clear,190,2013-12-19 01:55:00
9:15 PM,23.0,14.0,68,29.95,10.0,SSW,12.7,-,N/A,,Clear,200,2013-12-19 02:15:00
9:35 PM,23.0,14.0,68,29.95,10.0,SSW,12.7,-,N/A,,Clear,200,2013-12-19 02:35:00
9:55 PM,23.0,14.0,68,29.93,10.0,SSW,12.7,-,N/A,,Clear,200,2013-12-19 02:55:00
10:15 PM,24.8,14.0,64,29.93,10.0,North,-9999.0,-,N/A,,Clear,0,2013-12-19 03:15:00
10:35 PM,26.6,15.8,64,29.92,10.0,North,-9999.0,-,N/A,,Clear,0,2013-12-19 03:35:00
10:55 PM,26.6,15.8,64,29.91,10.0,SSW,12.7,-,N/A,,Clear,210,2013-12-19 03:55:00
11:15 PM,26.6,17.6,69,29.91,10.0,SSW,13.8,-,N/A,,Clear,210,2013-12-19 04:15:00
11:35 PM,28.4,17.6,64,29.91,10.0,SSW,11.5,-,N/A,,Clear,210,2013-12-19 04:35:00
11:55 PM,28.4,17.6,64,29.90,10.0,SW,11.5,-,N/A,,Clear,220,2013-12-19 04:55:00